[[{"header":{"parameterUnit":"m.s-1","parameterCategory":1,"la1":30.2991,"la2":30.254,"lo1":-89.0895,"lo2":-89.0444,"dx":0.0017,"dy":0.0017,"nx":28,"ny":28,"refTime":"2022-12-23T15:00:00:Z","depth":0,"parameterNumber":2,"parameterNumberName":"U-component_of_WINDS"},"data":[0,0,0,0,0,0,0,0,0,0,0,0,0,0,0,0,0,0,0,0,0,0,0,0,0,0,0,0,0,0,0,0,0,0,0,0,0,0,0,0,0,0,0,0,0,0,0,0,0,0,0,0,0,0,0,0,0,0,1.6284,1.6284,0,1.6268,1.6268,1.6268,1.6252,1.6252,1.6252,1.6252,1.6232,1.6232,1.6232,0,0,0,0,0,0,0,0,0,0,0,0,0,1.63,1.63,1.6284,1.6284,1.6284,1.6268,1.6268,1.6268,1.6252,1.6252,1.6252,1.6251,1.6232,1.6232,1.6232,0,0,0,0,0,0,0,0,0,0,0,0,0,1.629,1.63,1.6284,1.6274,1.6273,1.6268,1.6268,1.6268,1.6252,1.6252,1.6252,1.6251,1.6233,1.6232,1.6232,1.6234,0,0,1.623,1.623,0,0,0,0,0,0,0,0,1.629,1.6289,1.6276,1.6275,1.6274,1.6262,1.6267,1.6256,1.6252,1.626,1.6252,1.6251,1.6242,1.6241,1.6238,1.6233,1.6232,1.623,1.623,1.6229,1.6229,0,0,0,0,0,0,0,1.6291,1.629,1.6278,1.6276,1.6274,1.627,1.6268,1.6265,1.6253,1.6259,1.6258,1.6257,1.6242,1.6239,1.6238,1.6232,1.623,1.623,1.6229,1.6229,1.623,1.623,0,0,0,0,0,0,1.6294,1.629,1.6278,1.6277,1.6282,1.627,1.6268,1.6266,1.6253,1.6251,1.6257,1.6256,1.624,1.6238,1.6237,1.624,1.6229,1.6229,1.6229,1.6229,1.623,1.623,0,0,0,0,0,0,1.6294,1.6293,1.6279,1.6284,1.6282,1.627,1.6268,1.6266,1.6263,1.6251,1.6249,1.6256,1.624,1.6238,1.6236,1.6239,1.6229,1.6228,1.6229,1.623,1.623,1.6245,0,0,0,0,0,0,1.6295,1.6293,1.6294,1.6284,1.6281,1.6278,1.6268,1.6266,1.6263,1.6261,1.625,1.6248,1.6239,1.6236,1.6235,1.6238,1.6228,1.6229,1.6229,1.623,1.6244,1.6246,1.6248,0,0,0,0,0,1.6295,1.6298,1.6294,1.6293,1.6282,1.6278,1.6277,1.6268,1.6263,1.6264,1.6256,1.6248,1.6239,1.6236,1.6235,1.6238,1.6228,1.6229,1.623,1.6243,1.6246,1.6247,0,0,0,0,0,0,1.6307,1.6296,1.6292,1.6292,1.6286,1.6276,1.6276,1.627,1.6265,1.6264,1.6252,1.6249,1.6249,1.6243,1.624,1.624,1.6233,1.6233,1.6244,1.6246,1.6247,1.6248,1.6228,0,0,0,0,0,1.6311,1.6309,1.6299,1.6299,1.6297,1.6287,1.6285,1.6279,1.6272,1.6269,1.6262,1.6255,1.6251,1.6248,1.6243,1.6244,1.6241,1.6245,1.6247,1.6248,1.6248,1.6249,1.6251,1.6232,1.6232,1.6232,0,0,1.6316,1.631,1.6309,1.6302,1.6297,1.6295,1.6285,1.6283,1.6281,1.6269,1.6266,1.6261,1.6253,1.6252,1.6251,1.6247,1.6253,1.6249,1.625,1.625,1.625,1.6252,1.6253,1.6233,1.6233,1.6233,0,0,1.6325,1.632,1.632,1.6316,1.6309,1.6303,1.6303,1.6294,1.629,1.6288,1.6279,1.6277,1.6269,1.6264,1.6261,1.627,1.6262,1.6269,1.6277,1.6278,1.6279,1.6281,1.6284,1.6285,1.6269,1.6269,1.627,0,1.6332,1.6329,1.6321,1.632,1.6317,1.6308,1.6308,1.6304,1.6295,1.6294,1.629,1.6281,1.6275,1.6274,1.6276,1.6274,1.6273,1.6269,1.628,1.6281,1.6282,1.6285,1.6286,1.627,1.627,1.627,1.627,0,1.6338,1.6337,1.6338,1.6332,1.6329,1.6329,1.632,1.6319,1.6314,1.6308,1.6306,1.6299,1.6293,1.6292,1.6286,1.629,1.6288,1.6282,1.6274,1.6285,1.6287,1.6289,1.6271,1.6271,1.6271,1.6271,0,0,1.6353,1.6344,1.6344,1.6342,1.6334,1.6332,1.6332,1.6328,1.6327,1.6322,1.6321,1.6316,1.6311,1.6307,1.6301,1.6302,1.631,1.6296,1.6295,1.6298,1.6314,1.6318,1.632,1.6306,1.6306,1.6306,1.6315,0,1.636,1.6359,1.6353,1.6354,1.6352,1.6344,1.6344,1.6339,1.6334,1.6332,1.6326,1.6323,1.6317,1.6315,1.6315,1.6309,1.6313,1.6308,1.6304,1.6304,1.6306,1.6321,1.6325,1.6333,1.6316,1.6316,1.6316,0,1.6368,1.6365,1.6366,1.636,1.6359,1.6359,1.6355,1.6353,1.6348,1.6345,1.6342,1.6335,1.6334,1.6328,1.6326,1.6324,1.6322,1.6319,1.6319,1.6317,1.631,1.6319,1.6336,1.6337,1.6318,1.6318,1.6317,0,1.6378,1.6374,1.6375,1.6373,1.6366,1.6366,1.6363,1.6358,1.6356,1.6353,1.6351,1.6348,1.6345,1.6343,1.6335,1.6331,1.6335,1.6328,1.6331,1.6332,1.6331,1.6331,1.6347,1.6332,1.6332,1.6332,1.6332,0,1.6386,1.6387,1.6379,1.638,1.6381,1.6374,1.6375,1.6371,1.6367,1.6366,1.6359,1.6358,1.6349,1.6347,1.6341,1.6341,1.634,1.6337,1.6336,1.6337,1.6338,1.6335,1.6334,1.6332,1.6332,1.6332,1.6332,0,1.6397,1.6392,1.6392,1.6386,1.6385,1.6386,1.6381,1.638,1.6376,1.6375,1.6375,1.6367,1.6365,1.6358,1.6354,1.635,1.6352,1.6349,1.6353,1.6352,1.6356,1.6356,1.637,1.6372,1.6356,1.6356,1.6356,0,1.6402,1.6403,1.6398,1.6397,1.6395,1.6394,1.6393,1.6387,1.6385,1.6381,1.6381,1.6379,1.6376,1.6373,1.6367,1.6364,1.6361,1.6366,1.636,1.6362,1.6361,1.636,1.636,1.6367,1.6367,1.6368,1.6368,0,1.6412,1.641,1.6409,1.6407,1.6406,1.6404,1.6401,1.6401,1.6394,1.6393,1.6392,1.639,1.6387,1.6384,1.6381,1.6377,1.6371,1.637,1.6371,1.6372,1.6375,1.6373,1.6356,1.6369,1.6369,1.6369,1.6369,1.6369,1.642,1.6421,1.6418,1.6417,1.6415,1.6413,1.6413,1.6409,1.6408,1.6405,1.6402,1.6401,1.6397,1.6392,1.6389,1.6388,1.6384,1.6385,1.6385,1.6385,1.6386,1.6376,1.6387,1.6387,1.6387,1.6387,1.6387,0,1.6429,1.6427,1.6427,1.6424,1.6424,1.642,1.6417,1.6417,1.6416,1.6414,1.6412,1.6411,1.6409,1.6404,1.6401,1.6401,1.6399,1.6401,1.64,1.64,1.639,1.6389,1.6403,1.6403,1.6403,1.6403,1.6403,1.6403,1.6434,1.6435,1.6433,1.6433,1.6431,1.6431,1.643,1.6428,1.6426,1.6425,1.6424,1.6421,1.6418,1.6415,1.6413,1.6412,1.6411,1.6414,1.6412,1.6402,1.64,1.6399,1.6398,1.6414,1.6414,1.6422,1.6422,1.6422]},{"header":{"parameterUnit":"m.s-1","parameterCategory":1,"la1":30.2991,"la2":30.254,"lo1":-89.0895,"lo2":-89.0444,"dx":0.0017,"dy":0.0017,"nx":28,"ny":28,"refTime":"2022-12-23T15:00:00:Z","depth":0,"parameterNumber":3,"parameterNumberName":"V-component_of_WINDS"},"data":[0,0,0,0,0,0,0,0,0,0,0,0,0,0,0,0,0,0,0,0,0,0,0,0,0,0,0,0,0,0,0,0,0,0,0,0,0,0,0,0,0,0,0,0,0,0,0,0,0,0,0,0,0,0,0,0,0,0,-8.2238,-8.224,0,-8.2407,-8.2409,-8.2411,-8.2337,-8.2333,-8.2329,-8.2325,-8.2493,-8.2501,-8.2509,0,0,0,0,0,0,0,0,0,0,0,0,0,-8.1845,-8.1852,-8.2238,-8.224,-8.2242,-8.2407,-8.2409,-8.2412,-8.2338,-8.2333,-8.2328,-8.2323,-8.249,-8.25,-8.251,0,0,0,0,0,0,0,0,0,0,0,0,0,-8.2015,-8.1855,-8.2237,-8.2225,-8.2226,-8.2407,-8.2409,-8.2412,-8.2339,-8.2333,-8.2326,-8.2321,-8.2487,-8.2499,-8.2511,-8.2713,0,0,-8.255,-8.2555,0,0,0,0,0,0,0,0,-8.2005,-8.2029,-8.2225,-8.2226,-8.2227,-8.2345,-8.2332,-8.2513,-8.234,-8.2296,-8.2325,-8.2318,-8.2448,-8.2464,-8.2509,-8.2721,-8.2728,-8.2551,-8.2558,-8.2564,-8.2567,0,0,0,0,0,0,0,-8.1993,-8.2021,-8.2304,-8.2228,-8.2229,-8.2209,-8.2227,-8.2366,-8.2404,-8.2299,-8.2294,-8.2316,-8.2448,-8.2497,-8.2512,-8.273,-8.255,-8.2562,-8.2569,-8.2574,-8.3115,-8.3122,0,0,0,0,0,0,-8.1982,-8.2012,-8.2299,-8.231,-8.2099,-8.2222,-8.2241,-8.2313,-8.2403,-8.2411,-8.2321,-8.2311,-8.2479,-8.2498,-8.2518,-8.276,-8.2564,-8.2575,-8.2582,-8.3108,-8.3117,-8.3124,0,0,0,0,0,0,-8.1974,-8.2009,-8.2292,-8.216,-8.2194,-8.2235,-8.2317,-8.232,-8.2369,-8.2419,-8.2425,-8.2364,-8.2475,-8.25,-8.2665,-8.2764,-8.2581,-8.2592,-8.31,-8.3111,-8.312,-8.3244,0,0,0,0,0,0,-8.1963,-8.2006,-8.2084,-8.2162,-8.2202,-8.2439,-8.2323,-8.2328,-8.2391,-8.2381,-8.2462,-8.2469,-8.2472,-8.2647,-8.2678,-8.2778,-8.2602,-8.3091,-8.3105,-8.3117,-8.3232,-8.3258,-8.328,0,0,0,0,0,-8.195,-8.2111,-8.2089,-8.2124,-8.2301,-8.2445,-8.2467,-8.2468,-8.24,-8.2478,-8.251,-8.2467,-8.2749,-8.2664,-8.2698,-8.2804,-8.3085,-8.3101,-8.3116,-8.3221,-8.3252,-8.3279,0,0,0,0,0,0,-8.2042,-8.2121,-8.2097,-8.2289,-8.2361,-8.2432,-8.253,-8.2502,-8.2593,-8.258,-8.2575,-8.2594,-8.2765,-8.2801,-8.2706,-8.3003,-8.2906,-8.2929,-8.2974,-8.3005,-8.3028,-8.3016,-8.2612,0,0,0,0,0,-8.2085,-8.2198,-8.226,-8.2423,-8.2461,-8.249,-8.2552,-8.2548,-8.2621,-8.265,-8.2694,-8.2766,-8.287,-8.2939,-8.3038,-8.3236,-8.3252,-8.3326,-8.335,-8.3369,-8.3389,-8.3496,-8.3529,-8.3175,-8.3175,-8.3174,0,0,-8.2175,-8.2232,-8.2303,-8.2443,-8.2498,-8.2613,-8.2516,-8.2641,-8.2726,-8.2669,-8.2828,-8.2863,-8.2942,-8.3125,-8.3207,-8.3159,-8.3491,-8.3389,-8.3404,-8.3414,-8.3516,-8.3549,-8.3579,-8.3185,-8.3183,-8.3182,0,0,-8.2397,-8.2452,-8.2594,-8.2652,-8.2737,-8.2755,-8.279,-8.2866,-8.2887,-8.3047,-8.3007,-8.3106,-8.3287,-8.3345,-8.3398,-8.3643,-8.3606,-8.3675,-8.3802,-8.3906,-8.3934,-8.3959,-8.4046,-8.4077,-8.3695,-8.3695,-8.3696,0,-8.2497,-8.267,-8.267,-8.28,-8.2862,-8.2818,-8.2961,-8.3017,-8.3129,-8.3173,-8.3119,-8.3345,-8.3395,-8.359,-8.365,-8.3695,-8.3733,-8.3666,-8.393,-8.3955,-8.3978,-8.4061,-8.4094,-8.3703,-8.3702,-8.3701,-8.3701,0,-8.2789,-8.291,-8.3014,-8.3126,-8.32,-8.3336,-8.3355,-8.343,-8.3419,-8.3443,-8.3606,-8.3664,-8.3775,-8.3821,-8.381,-8.4015,-8.3983,-8.393,-8.3832,-8.402,-8.4098,-8.413,-8.3714,-8.3712,-8.3709,-8.3707,0,0,-8.3074,-8.3185,-8.3223,-8.3274,-8.3365,-8.3458,-8.3591,-8.3701,-8.3765,-8.3844,-8.3955,-8.4109,-8.4061,-8.4121,-8.4116,-8.4208,-8.4398,-8.4144,-8.4145,-8.4189,-8.4628,-8.4667,-8.4704,-8.4375,-8.4381,-8.4386,-8.4621,0,-8.3302,-8.3538,-8.3542,-8.3758,-8.3869,-8.3829,-8.3945,-8.4012,-8.4038,-8.4135,-8.4161,-8.4271,-8.4199,-8.4236,-8.4325,-8.4357,-8.4486,-8.4339,-8.4476,-8.4481,-8.4458,-8.4745,-8.4787,-8.5006,-8.4651,-8.4657,-8.466,0,-8.3601,-8.3692,-8.392,-8.3995,-8.4042,-8.4147,-8.4248,-8.4341,-8.4416,-8.4428,-8.4497,-8.4479,-8.4613,-8.4511,-8.4695,-8.4595,-8.4651,-8.4675,-8.4684,-8.4696,-8.4582,-8.4765,-8.5076,-8.5109,-8.4708,-8.4704,-8.4701,0,-8.3786,-8.3965,-8.4125,-8.4169,-8.4261,-8.4336,-8.4377,-8.4447,-8.4513,-8.46,-8.4643,-8.4744,-8.48,-8.4878,-8.4887,-8.4812,-8.5072,-8.4971,-8.5085,-8.5085,-8.5141,-8.5138,-8.5466,-8.5178,-8.5177,-8.5177,-8.5176,0,-8.4041,-8.4182,-8.4209,-8.4308,-8.4464,-8.4466,-8.462,-8.4655,-8.4717,-8.482,-8.4791,-8.4887,-8.4893,-8.4992,-8.5,-8.5151,-8.5176,-8.5189,-8.5189,-8.5192,-8.519,-8.5228,-8.5213,-8.5185,-8.5183,-8.5182,-8.518,0,-8.4274,-8.4299,-8.447,-8.4544,-8.4565,-8.4677,-8.4739,-8.4832,-8.4855,-8.4986,-8.5016,-8.5052,-8.5167,-8.5184,-8.5318,-8.5323,-8.5504,-8.5489,-8.548,-8.5478,-8.5591,-8.558,-8.5955,-8.6004,-8.5684,-8.5687,-8.5689,0,-8.4436,-8.4544,-8.463,-8.4698,-8.4744,-8.4853,-8.4921,-8.4927,-8.4998,-8.5093,-8.5174,-8.5287,-8.5377,-8.5562,-8.5599,-8.5701,-8.5687,-8.5812,-8.5702,-8.5702,-8.5689,-8.5683,-8.5693,-8.5833,-8.5836,-8.5839,-8.5841,0,-8.472,-8.4727,-8.4826,-8.4931,-8.5013,-8.5095,-8.5173,-8.5229,-8.5245,-8.5327,-8.5445,-8.5516,-8.5654,-8.5765,-8.5867,-8.5907,-8.5877,-8.5876,-8.5907,-8.5911,-8.5902,-8.5909,-8.5538,-8.5867,-8.5864,-8.5863,-8.5861,-8.586,-8.4922,-8.5016,-8.5092,-8.5204,-8.5263,-8.5336,-8.5428,-8.5463,-8.5562,-8.5677,-8.5674,-8.5804,-8.5875,-8.6009,-8.6057,-8.6157,-8.6116,-8.6162,-8.6174,-8.6185,-8.6197,-8.5886,-8.6175,-8.6175,-8.6174,-8.6174,-8.6173,0,-8.5205,-8.5252,-8.5355,-8.5465,-8.5553,-8.5519,-8.5603,-8.5678,-8.5794,-8.5865,-8.5955,-8.6091,-8.6199,-8.6245,-8.635,-8.6422,-8.6411,-8.645,-8.6444,-8.6454,-8.6227,-8.6189,-8.6457,-8.6457,-8.6457,-8.6457,-8.6457,-8.6457,-8.5362,-8.5519,-8.5535,-8.5721,-8.5766,-8.5896,-8.5946,-8.6013,-8.607,-8.6224,-8.6314,-8.6344,-8.6404,-8.6514,-8.6612,-8.6622,-8.6662,-8.6707,-8.6712,-8.6499,-8.647,-8.6442,-8.6407,-8.6716,-8.6716,-8.693,-8.6932,-8.6934]}]]